| time (UTC) | temp C | wind direction | speed KPH | gust KPH | rain 1hr cm | rain 24hr cm | rain mn cm | humidity % | barometer mb |
| 20260504001517 | 11 | 223 | 12.9 | 22.5 | 0.00 | 0.00 | 0.00 | 50 | 1010.4 |
| 20260504001016 | 11 | 222 | 11.3 | 22.5 | 0.00 | 0.00 | 0.00 | 50 | 1010.5 |
| 20260504000516 | 11 | 243 | 11.3 | 20.9 | 0.00 | 0.00 | 0.00 | 49 | 1010.4 |
| 20260504000016 | 11 | 229 | 12.9 | 20.9 | 0.00 | 0.00 | 0.00 | 49 | 1010.4 |
| 20260503235015 | 12 | 223 | 11.3 | 25.7 | 0.00 | 0.00 | 0.00 | 49 | 1010.5 |
| 20260503234526 | 12 | 230 | 11.3 | 25.7 | 0.00 | 0.00 | 0.00 | 48 | 1010.5 |
| 20260503234015 | 12 | 227 | 14.5 | 25.7 | 0.00 | 0.00 | 0.00 | 48 | 1010.5 |
| 20260503233514 | 12 | 207 | 12.9 | 24.1 | 0.00 | 0.00 | 0.00 | 49 | 1010.6 |
| 20260503233014 | 12 | 272 | 8.0 | 24.1 | 0.00 | 0.00 | 0.00 | 48 | 1010.5 |
| 20260503232514 | 12 | 249 | 11.3 | 32.2 | 0.00 | 0.00 | 0.00 | 48 | 1010.6 |
| 20260503232013 | 12 | 226 | 11.3 | 32.2 | 0.00 | 0.00 | 0.00 | 47 | 1010.5 |
| 20260503231514 | 12 | 265 | 17.7 | 29.0 | 0.00 | 0.00 | 0.00 | 47 | 1010.5 |
| 20260503231017 | 12 | 250 | 14.5 | 24.1 | 0.00 | 0.00 | 0.00 | 48 | 1010.6 |
| 20260503230516 | 12 | 234 | 9.7 | 19.3 | 0.00 | 0.00 | 0.00 | 48 | 1010.6 |
| 20260503230013 | 12 | 252 | 14.5 | 35.4 | 0.00 | 0.00 | 0.00 | 47 | 1010.6 |
| 20260503225018 | 12 | 225 | 12.9 | 24.1 | 0.00 | 0.00 | 0.00 | 47 | 1010.6 |
| 20260503224515 | 12 | 244 | 12.9 | 27.4 | 0.00 | 0.00 | 0.00 | 47 | 1010.6 |
| 20260503224015 | 12 | 224 | 17.7 | 27.4 | 0.00 | 0.00 | 0.00 | 46 | 1010.6 |
| 20260503223521 | 12 | 225 | 14.5 | 24.1 | 0.00 | 0.00 | 0.00 | 47 | 1010.7 |
| 20260503223014 | 12 | 244 | 9.7 | 22.5 | 0.00 | 0.00 | 0.00 | 46 | 1010.7 |
| 20260503222514 | 12 | 236 | 12.9 | 24.1 | 0.00 | 0.00 | 0.00 | 46 | 1010.7 |
| 20260503222017 | 12 | 257 | 12.9 | 24.1 | 0.00 | 0.00 | 0.00 | 46 | 1010.7 |
| 20260503221513 | 12 | 252 | 9.7 | 17.7 | 0.00 | 0.00 | 0.00 | 47 | 1010.7 |
| 20260503221015 | 12 | 213 | 9.7 | 19.3 | 0.00 | 0.00 | 0.00 | 47 | 1010.7 |
| 20260503220515 | 12 | 252 | 12.9 | 32.2 | 0.00 | 0.00 | 0.00 | 46 | 1010.7 |
| 20260503220034 | 12 | 360 | 16.1 | 32.2 | 0.00 | 0.00 | 0.00 | 46 | 1010.7 |
| 20260503215013 | 12 | 249 | 14.5 | 27.4 | 0.00 | 0.00 | 0.00 | 46 | 1010.7 |
| 20260503214511 | 12 | 210 | 8.0 | 27.4 | 0.00 | 0.00 | 0.00 | 46 | 1010.7 |
| 20260503214011 | 12 | 236 | 12.9 | 29.0 | 0.00 | 0.00 | 0.00 | 46 | 1010.7 |
| 20260503213514 | 12 | 213 | 16.1 | 29.0 | 0.00 | 0.00 | 0.00 | 45 | 1010.6 |
| 20260503213013 | 12 | 212 | 19.3 | 33.8 | 0.00 | 0.00 | 0.00 | 45 | 1010.7 |
| 20260503212512 | 13 | 205 | 19.3 | 33.8 | 0.00 | 0.00 | 0.00 | 44 | 1010.5 |
| 20260503212011 | 13 | 204 | 11.3 | 29.0 | 0.00 | 0.00 | 0.00 | 45 | 1010.5 |
| 20260503211512 | 13 | 260 | 19.3 | 29.0 | 0.00 | 0.00 | 0.00 | 43 | 1010.5 |
| 20260503211011 | 12 | 229 | 14.5 | 25.7 | 0.00 | 0.00 | 0.00 | 43 | 1010.5 |
| 20260503210510 | 13 | 223 | 14.5 | 25.7 | 0.00 | 0.00 | 0.00 | 42 | 1010.4 |
| 20260503210009 | 13 | 288 | 12.9 | 20.9 | 0.00 | 0.00 | 0.00 | 44 | 1010.5 |
| 20260503205011 | 12 | 257 | 12.9 | 33.8 | 0.00 | 0.00 | 0.00 | 43 | 1010.6 |
| 20260503204510 | 12 | 271 | 19.3 | 33.8 | 0.00 | 0.00 | 0.00 | 43 | 1010.7 |
| 20260503204014 | 12 | 229 | 14.5 | 32.2 | 0.00 | 0.00 | 0.00 | 41 | 1010.8 |
| 20260503203509 | 12 | 250 | 11.3 | 30.6 | 0.00 | 0.00 | 0.00 | 44 | 1010.7 |
| 20260503203020 | 13 | 254 | 16.1 | 29.0 | 0.00 | 0.00 | 0.00 | 42 | 1010.9 |
| 20260503202508 | 12 | 245 | 16.1 | 29.0 | 0.00 | 0.00 | 0.00 | 42 | 1010.9 |
| 20260503202008 | 12 | 251 | 9.7 | 29.0 | 0.00 | 0.00 | 0.00 | 43 | 1011.0 |
| 20260503201508 | 12 | 249 | 16.1 | 37.0 | 0.00 | 0.00 | 0.00 | 42 | 1011.0 |
| 20260503201011 | 13 | 246 | 14.5 | 25.7 | 0.00 | 0.00 | 0.00 | 42 | 1011.1 |
| 20260503200506 | 13 | 203 | 9.7 | 29.0 | 0.00 | 0.00 | 0.00 | 42 | 1011.1 |
| 20260503200005 | 13 | 250 | 16.1 | 30.6 | 0.00 | 0.00 | 0.00 | 42 | 1011.2 |
| 20260503195003 | 12 | 247 | 12.9 | 25.7 | 0.00 | 0.00 | 0.00 | 42 | 1011.4 |
| 20260503194503 | 12 | 245 | 14.5 | 32.2 | 0.00 | 0.00 | 0.00 | 43 | 1011.4 |
| 20260503194002 | 12 | 248 | 19.3 | 32.2 | 0.00 | 0.00 | 0.00 | 42 | 1011.4 |
| 20260503193500 | 12 | 232 | 11.3 | 27.4 | 0.00 | 0.00 | 0.00 | 44 | 1011.5 |
| 20260503193112 | 12 | 277 | 12.9 | 32.2 | 0.00 | 0.00 | 0.00 | 44 | 1011.6 |
| 20260503192600 | 12 | 244 | 17.7 | 32.2 | 0.00 | 0.00 | 0.00 | 46 | 1011.7 |
| 20260503192059 | 12 | 279 | 14.5 | 32.2 | 0.00 | 0.00 | 0.00 | 47 | 1011.7 |
| 20260503191608 | 12 | 198 | 19.3 | 33.8 | 0.00 | 0.00 | 0.00 | 46 | 1011.7 |
| 20260503191058 | 12 | 234 | 19.3 | 30.6 | 0.00 | 0.00 | 0.00 | 47 | 1011.9 |
| 20260503190557 | 12 | 293 | 11.3 | 29.0 | 0.00 | 0.00 | 0.00 | 44 | 1011.8 |
| 20260503190059 | 12 | 225 | 12.9 | 29.0 | 0.00 | 0.00 | 0.00 | 47 | 1012.0 |
| 20260503185100 | 12 | 294 | 16.1 | 27.4 | 0.00 | 0.00 | 0.00 | 45 | 1012.2 |
| 20260503184608 | 12 | 221 | 16.1 | 27.4 | 0.00 | 0.00 | 0.00 | 47 | 1012.2 |
| 20260503184055 | 12 | 269 | 9.7 | 24.1 | 0.00 | 0.00 | 0.00 | 47 | 1012.3 |
| 20260503183555 | 12 | 248 | 11.3 | 30.6 | 0.00 | 0.00 | 0.00 | 47 | 1012.3 |
| 20260503183108 | 12 | 261 | 17.7 | 32.2 | 0.00 | 0.00 | 0.00 | 46 | 1012.3 |
| 20260503182556 | 12 | 198 | 16.1 | 32.2 | 0.00 | 0.00 | 0.00 | 49 | 1012.5 |
| 20260503182053 | 11 | 245 | 20.9 | 32.2 | 0.00 | 0.00 | 0.00 | 47 | 1012.5 |
| 20260503181606 | 11 | 249 | 16.1 | 29.0 | 0.00 | 0.00 | 0.00 | 47 | 1012.6 |
| 20260503181051 | 11 | 236 | 11.3 | 32.2 | 0.00 | 0.00 | 0.00 | 50 | 1012.7 |
| 20260503180551 | 11 | 255 | 20.9 | 32.2 | 0.00 | 0.00 | 0.00 | 49 | 1012.7 |
| 20260503180050 | 11 | 265 | 16.1 | 43.5 | 0.00 | 0.00 | 0.00 | 48 | 1012.8 |
| 20260503175051 | 11 | 206 | 16.1 | 30.6 | 0.00 | 0.00 | 0.00 | 48 | 1012.9 |
| 20260503174548 | 11 | 237 | 16.1 | 29.0 | 0.00 | 0.00 | 0.00 | 50 | 1013.0 |
| 20260503174048 | 11 | 225 | 17.7 | 37.0 | 0.00 | 0.00 | 0.00 | 51 | 1013.0 |
| 20260503173547 | 11 | 199 | 20.9 | 35.4 | 0.00 | 0.00 | 0.00 | 49 | 1013.0 |
| 20260503173056 | 11 | 224 | 16.1 | 27.4 | 0.00 | 0.00 | 0.00 | 50 | 1013.1 |
| 20260503172546 | 10 | 231 | 9.7 | 24.1 | 0.00 | 0.00 | 0.00 | 52 | 1013.2 |
| 20260503172044 | 10 | 239 | 12.9 | 27.4 | 0.00 | 0.00 | 0.00 | 50 | 1013.3 |
| 20260503171544 | 10 | 243 | 17.7 | 27.4 | 0.00 | 0.00 | 0.00 | 50 | 1013.3 |
| 20260503171044 | 10 | 279 | 14.5 | 27.4 | 0.00 | 0.00 | 0.00 | 49 | 1013.4 |
| 20260503170543 | 10 | 286 | 17.7 | 27.4 | 0.00 | 0.00 | 0.00 | 50 | 1013.5 |
| 20260503150529 | 8 | 202 | 12.9 | 25.7 | 0.00 | 0.00 | 0.00 | 51 | 1014.4 |
| 20260503131013 | 4 | 275 | 6.4 | 14.5 | 0.00 | 0.00 | 0.00 | 78 | 1015.2 |
| 20260503130508 | 3 | 245 | 8.0 | 17.7 | 0.00 | 0.00 | 0.00 | 77 | 1015.1 |
| 20260503110548 | 0 | 200 | 9.7 | 14.5 | 0.00 | 0.00 | 0.00 | 87 | 1014.5 |
| 20260503081609 | 0 | 360 | 6.4 | 11.3 | 0.00 | 0.00 | 0.00 | 85 | 1014.3 |
| 20260503081041 | 0 | 209 | 4.8 | 11.3 | 0.00 | 0.00 | 0.00 | 85 | 1014.3 |
| 20260503080540 | 0 | 211 | 6.4 | 11.3 | 0.00 | 0.00 | 0.00 | 84 | 1014.4 |
| 20260503072537 | 0 | 243 | 4.8 | 9.7 | 0.00 | 0.00 | 0.00 | 83 | 1014.3 |
| 20260503072037 | 0 | 223 | 3.2 | 6.4 | 0.00 | 0.00 | 0.00 | 83 | 1014.2 |
| 20260503071537 | 0 | 234 | 1.6 | 6.4 | 0.00 | 0.00 | 0.00 | 83 | 1014.2 |
| 20260503071036 | 0 | 234 | 3.2 | 8.0 | 0.00 | 0.00 | 0.00 | 83 | 1014.2 |
| 20260503070536 | 0 | 240 | 4.8 | 8.0 | 0.00 | 0.00 | 0.00 | 84 | 1014.2 |
| 20260503055032 | 0 | 259 | 3.2 | 8.0 | 0.00 | 0.00 | 0.00 | 84 | 1014.6 |
| 20260503054538 | 0 | 263 | 4.8 | 8.0 | 0.00 | 0.00 | 0.00 | 84 | 1014.7 |
| 20260503054031 | 0 | 254 | 3.2 | 8.0 | 0.00 | 0.00 | 0.00 | 85 | 1014.7 |
| 20260503053531 | 0 | 240 | 3.2 | 9.7 | 0.00 | 0.00 | 0.00 | 85 | 1014.7 |
| 20260503053033 | 0 | 259 | 4.8 | 9.7 | 0.00 | 0.00 | 0.00 | 85 | 1014.7 |
| 20260503052532 | 0 | 236 | 4.8 | 8.0 | 0.00 | 0.00 | 0.00 | 85 | 1014.7 |
| 20260503052031 | 0 | 240 | 3.2 | 8.0 | 0.00 | 0.00 | 0.00 | 85 | 1014.8 |
| 20260503051531 | 0 | 242 | 3.2 | 8.0 | 0.00 | 0.00 | 0.00 | 85 | 1014.8 |
| 20260503051030 | 0 | 234 | 3.2 | 6.4 | 0.00 | 0.00 | 0.00 | 84 | 1014.8 |
| 20260503050530 | 0 | 234 | 3.2 | 8.0 | 0.00 | 0.00 | 0.00 | 84 | 1014.8 |
| 20260503050036 | 0 | 227 | 3.2 | 8.0 | 0.00 | 0.00 | 0.00 | 84 | 1014.8 |
| 20260503045030 | 0 | 248 | 3.2 | 8.0 | 0.00 | 0.00 | 0.00 | 84 | 1014.9 |
| 20260503044530 | 0 | 229 | 4.8 | 8.0 | 0.00 | 0.00 | 0.00 | 84 | 1014.9 |
| 20260503044029 | 0 | 246 | 3.2 | 8.0 | 0.00 | 0.00 | 0.00 | 84 | 1014.9 |
| 20260503043529 | 0 | 225 | 4.8 | 8.0 | 0.00 | 0.00 | 0.00 | 84 | 1014.9 |
| 20260503043029 | 0 | 266 | 3.2 | 9.7 | 0.00 | 0.00 | 0.00 | 83 | 1015.0 |
| 20260503042529 | 0 | 240 | 4.8 | 11.3 | 0.00 | 0.00 | 0.00 | 84 | 1015.0 |
| 20260503042029 | 0 | 228 | 3.2 | 11.3 | 0.00 | 0.00 | 0.00 | 83 | 1014.9 |
| 20260503041529 | 0 | 240 | 3.2 | 8.0 | 0.00 | 0.00 | 0.00 | 83 | 1015.0 |
| 20260503041028 | 0 | 250 | 3.2 | 8.0 | 0.00 | 0.00 | 0.00 | 83 | 1014.9 |
| 20260503040528 | 0 | 240 | 3.2 | 8.0 | 0.00 | 0.00 | 0.00 | 83 | 1015.0 |
| 20260503040034 | 0 | 240 | 3.2 | 8.0 | 0.00 | 0.00 | 0.00 | 83 | 1015.0 |
| 20260503035029 | 1 | 238 | 3.2 | 6.4 | 0.00 | 0.00 | 0.00 | 82 | 1015.0 |
| 20260503034536 | 1 | 239 | 3.2 | 6.4 | 0.00 | 0.00 | 0.00 | 82 | 1015.0 |
| 20260503034029 | 1 | 242 | 1.6 | 8.0 | 0.00 | 0.00 | 0.00 | 82 | 1015.0 |
| 20260503033528 | 1 | 242 | 3.2 | 9.7 | 0.00 | 0.00 | 0.00 | 81 | 1015.0 |
| 20260503033030 | 1 | 239 | 4.8 | 9.7 | 0.00 | 0.00 | 0.00 | 82 | 1015.0 |
| 20260503032528 | 1 | 223 | 4.8 | 9.7 | 0.00 | 0.00 | 0.00 | 81 | 1015.0 |
| 20260503032028 | 1 | 244 | 1.6 | 4.8 | 0.00 | 0.00 | 0.00 | 81 | 1015.1 |
| 20260503031528 | 1 | 236 | 1.6 | 8.0 | 0.00 | 0.00 | 0.00 | 81 | 1015.0 |
| 20260503031031 | 1 | 229 | 3.2 | 9.7 | 0.00 | 0.00 | 0.00 | 81 | 1015.1 |
| 20260503030527 | 1 | 225 | 3.2 | 9.7 | 0.00 | 0.00 | 0.00 | 81 | 1015.1 |
| 20260503030028 | 1 | 254 | 1.6 | 6.4 | 0.00 | 0.00 | 0.00 | 81 | 1015.2 |
| 20260503025027 | 1 | 232 | 1.6 | 8.0 | 0.00 | 0.00 | 0.00 | 80 | 1015.3 |
| 20260503024527 | 1 | 224 | 1.6 | 6.4 | 0.00 | 0.00 | 0.00 | 80 | 1015.2 |
| 20260503024028 | 1 | 224 | 1.6 | 6.4 | 0.00 | 0.00 | 0.00 | 80 | 1015.3 |
| 20260503023528 | 1 | 223 | 1.6 | 6.4 | 0.00 | 0.00 | 0.00 | 79 | 1015.3 |
| 20260503023027 | 1 | 223 | 1.6 | 6.4 | 0.00 | 0.00 | 0.00 | 79 | 1015.4 |
| 20260503022527 | 1 | 224 | 3.2 | 6.4 | 0.00 | 0.00 | 0.00 | 78 | 1015.4 |
| 20260503022029 | 1 | 246 | 1.6 | 6.4 | 0.00 | 0.00 | 0.00 | 78 | 1015.4 |
| 20260503021527 | 1 | 247 | 0.0 | 4.8 | 0.00 | 0.00 | 0.00 | 78 | 1015.4 |
| 20260503021027 | 2 | 247 | 0.0 | 3.2 | 0.00 | 0.00 | 0.00 | 78 | 1015.4 |
| 20260503020527 | 2 | 247 | 0.0 | 6.4 | 0.00 | 0.00 | 0.00 | 77 | 1015.4 |
| 20260503020026 | 2 | 247 | 1.6 | 6.4 | 0.00 | 0.00 | 0.00 | 77 | 1015.4 |
| 20260503015027 | 2 | 293 | 0.0 | 3.2 | 0.00 | 0.00 | 0.00 | 76 | 1015.3 |
| 20260503014537 | 2 | 293 | 0.0 | 6.4 | 0.00 | 0.00 | 0.00 | 75 | 1015.4 |
| 20260503014026 | 2 | 293 | 3.2 | 6.4 | 0.00 | 0.00 | 0.00 | 75 | 1015.3 |
| 20260503013526 | 2 | 296 | 1.6 | 6.4 | 0.00 | 0.00 | 0.00 | 76 | 1015.3 |
| 20260503013028 | 2 | 296 | 0.0 | 3.2 | 0.00 | 0.00 | 0.00 | 76 | 1015.3 |
| 20260503012525 | 2 | 296 | 0.0 | 4.8 | 0.00 | 0.00 | 0.00 | 76 | 1015.3 |
| 20260503012024 | 2 | 296 | 0.0 | 6.4 | 0.00 | 0.00 | 0.00 | 76 | 1015.4 |
| 20260503011524 | 2 | 296 | 3.2 | 6.4 | 0.00 | 0.00 | 0.00 | 75 | 1015.3 |
| 20260503011024 | 2 | 296 | 1.6 | 6.4 | 0.00 | 0.00 | 0.00 | 75 | 1015.3 |
| 20260503010524 | 2 | 295 | 3.2 | 6.4 | 0.00 | 0.00 | 0.00 | 74 | 1015.3 |
| 20260503010024 | 2 | 288 | 3.2 | 9.7 | 0.00 | 0.00 | 0.00 | 74 | 1015.2 |
| 20260503005033 | 2 | 296 | 1.6 | 8.0 | 0.00 | 0.00 | 0.00 | 74 | 1015.2 |
| 20260503004529 | 2 | 304 | 3.2 | 8.0 | 0.00 | 0.00 | 0.00 | 74 | 1015.2 |
| 20260503004029 | 2 | 294 | 3.2 | 8.0 | 0.00 | 0.00 | 0.00 | 74 | 1015.1 |
| 20260503003528 | 2 | 302 | 4.8 | 9.7 | 0.00 | 0.00 | 0.00 | 74 | 1015.1 |
| 20260503003028 | 2 | 277 | 3.2 | 9.7 | 0.00 | 0.00 | 0.00 | 74 | 1015.0 |
| 20260503002528 | 2 | 302 | 1.6 | 4.8 | 0.00 | 0.00 | 0.00 | 75 | 1015.1 |
| 20260503002031 | 2 | 302 | 1.6 | 4.8 | 0.00 | 0.00 | 0.00 | 74 | 1015.1 |